Regional Weather Roundup
Issued by NWS

Home | Current Version | Previous Version | Graphics & Text | Print | Product List | Glossary On
Versions: 1 2 3 4 5 6 7 8 9 10 11 12 13 14 15 16 17 18 19 20 21 22 23 24 25 26 27 28 29 30 31 32 33 34 35 36 37 38 39 40 41 42 43 44 45 46 47 48 49 50
000
ASUS45 KSLC 011510
RWRUT

UTAH REGIONAL WEATHER ROUNDUP
NATIONAL WEATHER SERVICE SALT LAKE CITY UT
900 AM MDT TUE SEP 01 2015

UTZ001>011-023>025-011600-

NORTHERN UTAH

CITY           SKY/WX    TMP DP  RH WIND       PRES   REMARKS
BRIGHAM CITY   SUNNY     63  43  47 N5        30.01R
HILL AFB       CLOUDY    70  42  36 E9        30.03R
LOGAN          SUNNY     58  42  55 N5        30.02S
OGDEN          MOSUNNY   71  43  36 S10       30.00R
PROVO AIRPORT  MOSUNNY   72  46  40 SE9       30.07
SALT LAKE CITY PTSUNNY   77  46  33 SE10      29.99R
VERNAL         SUNNY     64  46  52 SE3       30.17R
WENDOVER       MOSUNNY   70  37  30 NE3       30.00R
HEBER CITY     PTSUNNY   63  43  48 CALM      30.14S
WEST JORDAN    MOSUNNY   73  46  38 S16       30.04R

$$

UTZ012>022-026-027-011600-

SOUTHERN/CENTRAL UTAH

CITY           SKY/WX    TMP DP  RH WIND       PRES   REMARKS
BLANDING       SUNNY     67  50  55 E5        30.29S
BRYCE CANYON   MOSUNNY   60  48  64 W3        30.32S
CEDAR CITY     SUNNY     71  48  43 SW13      30.15S
DELTA          SUNNY     73  44  34 S13       30.08S
HANKSVILLE     PTSUNNY   66  50  55 CALM      30.12S
MILFORD        SUNNY     73  48  41 SW10      30.11R
MOAB/CYNLANDS  SUNNY     74  51  44 E6        30.10S
PRICE          MOSUNNY   69  48  47 E6        30.19R
ST GEORGE      PTSUNNY   81  54  39 E10       30.01S

$$

REGIONAL REPORTS     COLORADO/ARIZONA

CITY           SKY/WX    TMP DP  RH WIND       PRES   REMARKS
CRAIG, CO      SUNNY     63  47  55 VRB7      30.22F
GRAND JUNCTION MOSUNNY   66  52  60 SE7       30.15R
RIFLE          MOSUNNY   59  51  75 CALM      30.22S
MONTROSE       SUNNY     66  48  52 SE3       30.24S
CORTEZ         SUNNY     66  49  54 CALM      30.24S
PAGE, AZ       SUNNY     73  55  53 SW5       30.11S
GRAND CANYON   SUNNY     64  54  69 CALM      30.29R
KINGMAN        SUNNY     78  46  32 SW3       30.05R
FLAGSTAFF      SUNNY     63  55  75 CALM      30.30S

$$

REGIONAL REPORTS    NEVADA/IDAHO/WYOMING

CITY           SKY/WX    TMP DP  RH WIND       PRES   REMARKS
LAS VEGAS, NV  MOSUNNY   84  45  25 S12G21    29.88R
ELY            SUNNY     66  39  37 S12       30.15S
ELKO           SUNNY     57  26  30 NE7       30.05S
POCATELLO, ID  SUNNY     56  38  50 N3        30.02R
BURLEY         SUNNY     56  42  59 S5        29.99S
EVANSTON, WY   MOSUNNY   64  41  42 S9        30.20S
ROCK SPRINGS   SUNNY     62  44  51 NE5       30.19S
KEMMERER       SUNNY     59  34  38 N3        30.21S

$$


USA.gov is the U.S. government's official web portal to all federal, state and local government web resources and services.